7 * 24
多渠道服务支持
GOES 4 是美国国家气象卫星计划(GOES)系列中的一颗地球静止气象卫星,于1979年发射。它由美国国家海洋和大气管理局(NOAA)运营,主要用于气象观测,提供云层覆盖、天气系统发展和地球表面状况的实时图像。GOES 4 在东经135度的轨道位置运行,为北美地区提供气象数据支持,提升了天气预报的准确性。该卫星搭载了先进的云图传感器,是早期静止气象卫星的重要组成部分,为后续 GOES 系列卫星的发展奠定了基础。
美国
(US)
| 数据来源 | 国际轨道数据 |
| 星历时间: | 2025-12-13T07:14:23+0800 10小时前 查看轨道信息 |
| 半长轴: | 42460.076km |
| 偏心率: | 0.0030011 |
| 轨道倾角: | 8.391° |
| 近地点辐角 | 102.324° |
| 升交点赤经 | 304.334° |
| 平近点角 | 276.729° |
| 近地点: | 35954.514km |
| 远地点: | 36209.368km |
| 周期: | 1451.212分钟 |
| 每日圈数: | 0.992274 |